Flag for U.S.A. Weather past 2 weeks in Kennebunk, Maine, U.S.A.

39 °F


Feels Like: 39 °F
Forecast: 43 / 62 °F
Wind: No wind

Location: Sanford Municipal

Current Time: Oct 8, 2015 at 10:12:54 PM

Latest Report: Oct 8, 2015 at 9:35 PM

Visibility: 10 mi

Pressure: 30.14 "Hg

Humidity: 87%

Dew point: 36 °F

Location of KennebunkLocation

Historic Weather in Kennebunk — Graph


Kennebunk temperature yesterday

Maximum temperature yesterday: 70 °F (at 1:35 PM)
Minimum temperature yesterday: 36 °F (at 4:15 AM)
Average temperature yesterday: 51 °F

Past Weeks' High & Low Weather Summary

High81 °F (Sep 29, 1:55 PM)94% (Sep 29, 6:15 AM)30.56 "Hg (Sep 29, 6:15 AM)
Low27 °F (Sep 27, 4:55 AM)27% (Sep 27, 12:55 PM)29.69 "Hg (Sep 30, 11:35 AM)
Average53 °F67%30.23 "Hg
* Reported Sep 23 8:15 PM — Oct 8 8:55 PM, Kennebunk, Weather by CustomWeather, © 2015

Note: Actual official high and low records may vary slightly from our data, if they occured in-between our weather recording intervals... More about our weather records


Kennebunk weather history for previous 24 hours

Time TempWeatherWind HumidityBarometerVisibility
8:55 PM
Thu, Oct 8
39 °FClear.No wind81%30.14 "Hg10 mi
8:35 PM39 °FClear.No wind81%30.14 "Hg6 mi
8:15 PM41 °FClear.No wind81%30.14 "Hg10 mi
7:55 PM43 °FClear.No wind76%30.14 "Hg10 mi
7:35 PM43 °FClear.No wind81%30.13 "Hg10 mi
7:15 PM45 °FClear.3 mph76%30.13 "Hg10 mi
6:55 PM45 °FSunny.No wind81%30.13 "Hg10 mi
6:35 PM46 °FSunny.No wind71%30.12 "Hg10 mi
5:55 PM54 °FSunny.3 mph58%30.11 "Hg10 mi
5:35 PM55 °FSunny.No wind55%30.11 "Hg10 mi
4:55 PM61 °FSunny.5 mph39%30.11 "Hg10 mi
4:35 PM61 °FSunny.3 mph34%30.11 "Hg10 mi
4:15 PM61 °FSunny.6 mph36%30.10 "Hg10 mi
3:55 PM63 °FSunny.3 mph34%30.10 "Hg10 mi
3:35 PM63 °FSunny.6 mph34%30.10 "Hg10 mi
3:15 PM61 °FSunny.6 mph39%30.10 "Hg10 mi
2:55 PM63 °FSunny.6 mph37%30.10 "Hg10 mi
2:35 PM61 °FSunny.3 mph36%30.10 "Hg10 mi
2:15 PM61 °FSunny.No wind39%30.11 "Hg10 mi
1:55 PM61 °FSunny.7 mph39%30.11 "Hg10 mi
1:35 PM61 °FSunny.6 mph39%30.12 "Hg10 mi
1:15 PM59 °FSunny.7 mph39%30.12 "Hg10 mi
12:55 PM61 °FSunny.8 mph39%30.13 "Hg10 mi
12:35 PM57 °FSunny.5 mph41%30.14 "Hg10 mi
12:15 PM59 °FSunny.6 mph42%30.14 "Hg10 mi
11:55 AM57 °FSunny.7 mph41%30.15 "Hg10 mi
11:35 AM55 °FSunny.9 mph44%30.15 "Hg10 mi
11:15 AM55 °FSunny.8 mph44%30.15 "Hg10 mi
10:55 AM54 °FSunny.7 mph47%30.16 "Hg10 mi
10:35 AM54 °FSunny.9 mph44%30.16 "Hg10 mi
10:15 AM54 °FSunny.6 mph44%30.16 "Hg10 mi
9:55 AM54 °FSunny.10 mph51%30.16 "Hg10 mi
9:35 AM52 °FSunny.13 mph47%30.16 "Hg10 mi
9:15 AM52 °FSunny.8 mph54%30.16 "Hg10 mi
8:55 AM50 °FSunny.7 mph58%30.15 "Hg10 mi
8:35 AM48 °FSunny.6 mph62%30.14 "Hg10 mi
8:15 AM46 °FSunny.5 mph76%30.14 "Hg10 mi
7:55 AM46 °FSunny.5 mph76%30.13 "Hg10 mi
7:35 AM37 °FClear.6 mph87%30.12 "Hg8 mi
7:15 AM36 °FClear.No wind87%30.12 "Hg9 mi
6:55 AM36 °FClear.3 mph87%30.11 "Hg5 mi
6:35 AM36 °FClear.No wind81%30.11 "Hg7 mi
6:15 AM37 °FClear.No wind87%30.10 "Hg8 mi
5:55 AM37 °FClear.No wind93%30.09 "Hg7 mi
5:35 AM39 °FClear.No wind81%30.08 "Hg7 mi
5:15 AM37 °FClear.3 mph93%30.07 "Hg10 mi
4:55 AM37 °FClear.No wind87%30.06 "Hg5 mi
4:35 AM39 °FClear.3 mph87%30.05 "Hg8 mi
4:15 AM39 °FClear.No wind87%30.05 "Hg5 mi
3:55 AM39 °FClear.No wind87%30.04 "Hg5 mi
3:35 AM43 °FClear.No wind81%30.03 "Hg10 mi
3:15 AM43 °FClear.No wind81%30.03 "Hg3 mi
2:55 AM43 °FClear.No wind87%30.03 "Hg8 mi
2:35 AM46 °FPassing clouds.3 mph76%30.02 "Hg10 mi
2:15 AM48 °FPassing clouds.7 mph76%30.02 "Hg10 mi
1:55 AM52 °FPassing clouds.6 mph72%30.01 "Hg10 mi
1:35 AM46 °FClear.6 mph76%30.01 "Hg10 mi
1:15 AM43 °FClear.5 mph87%30.00 "Hg6 mi
12:55 AM45 °FPassing clouds.3 mph81%29.99 "Hg10 mi
12:35 AM46 °FOvercast.No wind82%29.99 "Hg10 mi
11:55 PM
Wed, Oct 7
45 °FOvercast.No wind93%29.99 "Hg9 mi
11:35 PM45 °FPassing clouds.No wind81%29.99 "Hg9 mi
11:15 PM45 °FPassing clouds.No wind81%29.98 "Hg10 mi
10:55 PM45 °FPassing clouds.No wind81%29.98 "Hg8 mi
10:35 PM46 °FPartly cloudy.No wind76%29.98 "Hg10 mi
10:15 PM45 °FPassing clouds.No wind81%29.97 "Hg10 mi
Weather by CustomWeather, © 2015

See weather overviewHow to use our weather pages